Location: Newark
(9.4667°S, 159.8167°E)
Time: 11:36:24
(UTC+00:00)

Courier 1B Rocket - Pass Details

Date: 21 November 2019
Orbit: 920 x 1202 km, 28.2° (Epoch: 10 December)

Event Time Altitude Azimuth Distance (km) Brightness Sun altitude
Rises 13:11:12 0° 289° (WNW) 4,070 - -60.6°
Reaches altitude 10° 13:14:08 10° 286° (WNW) 3,088 - -60.6°
Maximum altitude 13:21:41 60° 207° (SSW) 1,278 - -60.4°
Drops below altitude 10° 13:28:49 10° 128° (SE) 2,916 - -60.1°
Sets 13:31:31 0° 124° (ESE) 3,830 - -60.0°
